[[{"header":{"parameterUnit":"m.s-1","parameterCategory":1,"la1":30.2991,"la2":30.254,"lo1":-89.0895,"lo2":-89.0444,"dy":0.0017,"dx":0.0017,"nx":28,"ny":28,"refTime":"2023-07-26T03:00:00:Z","depth":0,"parameterNumber":2,"parameterNumberName":"U-component_of_WINDS"},"data":[0,0,0,0,0,0,0,0,0,0,0,0,0,0,0,0,0,0,0,0,0,0,0,0,0,0,0,0,0,0,0,0,0,0,0,0,0,0,0,0,0,0,0,0,0,0,0,0,0,0,0,0,0,0,0,0,0,0,0.1822,0.1823,0,0.1966,0.1967,0.1969,0.2039,0.2039,0.2039,0.2039,0.219,0.2193,0.2197,0,0,0,0,0,0,0,0,0,0,0,0,0,0.1609,0.1613,0.1821,0.1823,0.1825,0.1965,0.1967,0.1969,0.2039,0.2039,0.2039,0.2039,0.2188,0.2193,0.2198,0,0,0,0,0,0,0,0,0,0,0,0,0,0.1722,0.1614,0.1821,0.1877,0.1883,0.1965,0.1967,0.197,0.2039,0.2039,0.2039,0.2039,0.2187,0.2193,0.2199,0.2237,0,0,0.2217,0.222,0,0,0,0,0,0,0,0,0.1716,0.173,0.1867,0.1873,0.188,0.1984,0.1948,0.2059,0.2039,0.198,0.2039,0.2039,0.2122,0.2133,0.216,0.2244,0.225,0.2218,0.2221,0.2224,0.2226,0,0,0,0,0,0,0,0.1708,0.1724,0.1879,0.1869,0.1877,0.1895,0.1911,0.1969,0.2049,0.1985,0.1991,0.2006,0.2125,0.2154,0.2164,0.2253,0.2217,0.2223,0.2227,0.2229,0.2374,0.2375,0,0,0,0,0,0,0.1691,0.1717,0.1874,0.1883,0.1796,0.1899,0.1917,0.1951,0.2049,0.2064,0.2006,0.2009,0.2144,0.2157,0.217,0.2221,0.2224,0.2229,0.2233,0.2374,0.2374,0.2375,0,0,0,0,0,0,0.1686,0.1704,0.1868,0.1802,0.1824,0.1903,0.194,0.1954,0.1983,0.2065,0.208,0.2021,0.2144,0.2161,0.2219,0.2227,0.2232,0.2238,0.2374,0.2374,0.2374,0.2323,0,0,0,0,0,0,0.1679,0.1702,0.1717,0.1801,0.1827,0.1914,0.1941,0.1957,0.1993,0.1998,0.2083,0.2097,0.2146,0.221,0.2225,0.2235,0.2242,0.2373,0.2374,0.2374,0.2324,0.2321,0.2319,0,0,0,0,0,0.1671,0.1697,0.1717,0.1736,0.1847,0.1915,0.193,0.1985,0.1993,0.2009,0.2061,0.2094,0.2223,0.2215,0.2233,0.2245,0.2373,0.2374,0.2374,0.2325,0.2322,0.2319,0,0,0,0,0,0,0.1613,0.1709,0.1732,0.1786,0.1841,0.1926,0.1948,0.1979,0.2034,0.2037,0.2104,0.2122,0.2174,0.2216,0.2205,0.2287,0.2301,0.2306,0.2258,0.2255,0.2253,0.2242,0.2247,0,0,0,0,0,0.1606,0.1652,0.1734,0.1773,0.18,0.1869,0.1901,0.1938,0.1998,0.2023,0.208,0.2138,0.2192,0.2226,0.228,0.233,0.235,0.2347,0.2345,0.2342,0.2345,0.2374,0.2374,0.2376,0.2376,0.2376,0,0,0.1592,0.1651,0.1676,0.1763,0.181,0.1857,0.1888,0.1937,0.1972,0.203,0.2088,0.2132,0.2201,0.2255,0.2282,0.2291,0.2348,0.2343,0.234,0.2345,0.2375,0.2374,0.2374,0.2377,0.2377,0.2377,0,0,0.1592,0.164,0.1678,0.1725,0.1795,0.1841,0.185,0.193,0.1961,0.202,0.2064,0.2107,0.2199,0.2246,0.2282,0.2298,0.233,0.2314,0.23,0.2328,0.2328,0.2328,0.2333,0.2334,0.2316,0.2316,0.2316,0,0.1567,0.1638,0.1694,0.174,0.1777,0.183,0.1869,0.1911,0.1996,0.2021,0.203,0.2145,0.2196,0.2261,0.2265,0.2292,0.2305,0.2305,0.2323,0.2324,0.2325,0.2331,0.2333,0.2314,0.2314,0.2314,0.2314,0,0.1603,0.1652,0.1674,0.1753,0.1793,0.1835,0.1898,0.1931,0.1965,0.2009,0.2068,0.213,0.2198,0.2216,0.225,0.2286,0.229,0.231,0.2326,0.2321,0.2328,0.2331,0.231,0.2311,0.2312,0.2312,0,0,0.1571,0.1679,0.1687,0.1723,0.1804,0.1844,0.1888,0.1952,0.1979,0.2036,0.2075,0.215,0.2169,0.221,0.2249,0.2273,0.2281,0.2291,0.2293,0.2287,0.2325,0.2309,0.2311,0.2302,0.2303,0.2304,0.2319,0,0.1582,0.1663,0.1714,0.1775,0.182,0.1871,0.1909,0.1963,0.2006,0.2051,0.2099,0.2151,0.2172,0.2197,0.2223,0.2275,0.229,0.2274,0.234,0.2342,0.2321,0.2315,0.2299,0.2311,0.2322,0.2323,0.2323,0,0.1606,0.1659,0.1724,0.1799,0.182,0.1854,0.1917,0.1959,0.2022,0.2051,0.2095,0.2135,0.2184,0.2195,0.2264,0.2252,0.2282,0.2311,0.2313,0.2322,0.2332,0.2323,0.2316,0.2317,0.2328,0.2327,0.2327,0,0.1575,0.1664,0.1714,0.1743,0.1833,0.1855,0.1893,0.1956,0.1991,0.2046,0.2069,0.2129,0.2163,0.2209,0.2263,0.2266,0.2327,0.2342,0.2353,0.2351,0.2364,0.2362,0.2361,0.2382,0.2382,0.2382,0.2382,0,0.1582,0.162,0.1701,0.1732,0.1776,0.1834,0.1876,0.1919,0.1973,0.2014,0.2061,0.2098,0.2168,0.2214,0.2257,0.2307,0.2322,0.2347,0.2358,0.2343,0.234,0.2364,0.2365,0.2383,0.2382,0.2382,0.2382,0,0.1556,0.1612,0.167,0.1749,0.177,0.1798,0.1866,0.1898,0.1943,0.1993,0.2008,0.2078,0.2134,0.2193,0.227,0.2299,0.2347,0.2362,0.2325,0.2332,0.2339,0.2337,0.2353,0.2358,0.2375,0.2375,0.2375,0,0.1557,0.1587,0.1669,0.1699,0.1735,0.1783,0.1818,0.1877,0.1912,0.1985,0.2008,0.2067,0.2118,0.2205,0.2263,0.2321,0.2339,0.234,0.2348,0.2332,0.2339,0.2337,0.234,0.2338,0.2337,0.2337,0.2337,0,0.1553,0.1579,0.1628,0.1686,0.1727,0.1776,0.1827,0.1849,0.1918,0.1955,0.2012,0.2051,0.2128,0.2186,0.2251,0.2292,0.2326,0.2333,0.2339,0.2324,0.2301,0.2314,0.2318,0.2333,0.2333,0.2334,0.2334,0.2334,0.1541,0.157,0.1631,0.1684,0.1728,0.1774,0.1808,0.1856,0.1904,0.197,0.2002,0.2059,0.212,0.2211,0.225,0.2296,0.2306,0.2314,0.2316,0.2317,0.2313,0.2293,0.2308,0.2308,0.2308,0.2309,0.2309,0,0.1539,0.1581,0.1629,0.1698,0.1739,0.1766,0.1823,0.1857,0.1906,0.1959,0.2007,0.2072,0.2129,0.219,0.2251,0.2275,0.2292,0.2289,0.2288,0.2297,0.2301,0.229,0.2274,0.2274,0.2274,0.2274,0.2274,0.2274,0.1543,0.1593,0.1626,0.1697,0.1739,0.1794,0.1825,0.1868,0.1911,0.1981,0.2027,0.2067,0.2124,0.2188,0.2241,0.2258,0.2278,0.227,0.2291,0.2294,0.2297,0.2299,0.2289,0.2274,0.2274,0.2283,0.2283,0.2283]},{"header":{"parameterUnit":"m.s-1","parameterCategory":1,"la1":30.2991,"la2":30.254,"lo1":-89.0895,"lo2":-89.0444,"dy":0.0017,"dx":0.0017,"nx":28,"ny":28,"refTime":"2023-07-26T03:00:00:Z","depth":0,"parameterNumber":3,"parameterNumberName":"V-component_of_WINDS"},"data":[0,0,0,0,0,0,0,0,0,0,0,0,0,0,0,0,0,0,0,0,0,0,0,0,0,0,0,0,0,0,0,0,0,0,0,0,0,0,0,0,0,0,0,0,0,0,0,0,0,0,0,0,0,0,0,0,0,0,2.6745,2.6745,0,2.6759,2.6759,2.6759,2.6768,2.6768,2.6768,2.6768,2.678,2.678,2.678,0,0,0,0,0,0,0,0,0,0,0,0,0,2.6719,2.6719,2.6745,2.6745,2.6745,2.6759,2.6759,2.6759,2.6768,2.6768,2.6768,2.6768,2.678,2.678,2.678,0,0,0,0,0,0,0,0,0,0,0,0,0,2.6731,2.6719,2.6745,2.6751,2.6752,2.6759,2.6759,2.6759,2.6768,2.6768,2.6768,2.6768,2.678,2.678,2.678,2.6781,0,0,2.6781,2.6782,0,0,0,0,0,0,0,0,2.673,2.6732,2.675,2.6751,2.6752,2.6762,2.6754,2.6766,2.6768,2.6762,2.6768,2.6769,2.6774,2.6774,2.6777,2.6781,2.6782,2.6781,2.6782,2.6782,2.6782,0,0,0,0,0,0,0,2.673,2.6731,2.675,2.675,2.6751,2.6751,2.6753,2.6756,2.6767,2.6762,2.6763,2.6765,2.6774,2.6776,2.6777,2.6782,2.6781,2.6782,2.6782,2.6782,2.6783,2.6782,0,0,0,0,0,0,2.6728,2.6731,2.675,2.6751,2.6741,2.6752,2.6754,2.6758,2.6767,2.6768,2.6765,2.6765,2.6776,2.6777,2.6778,2.6776,2.6782,2.6782,2.6782,2.6783,2.6783,2.6782,0,0,0,0,0,0,2.6728,2.673,2.6749,2.6741,2.6743,2.6752,2.6757,2.6759,2.6761,2.6769,2.677,2.6766,2.6776,2.6777,2.6779,2.6776,2.6782,2.6783,2.6783,2.6783,2.6783,2.6774,0,0,0,0,0,0,2.6727,2.673,2.6732,2.6741,2.6744,2.6752,2.6757,2.6759,2.6762,2.6763,2.677,2.6771,2.6776,2.6779,2.6779,2.6777,2.6783,2.6783,2.6783,2.6783,2.6775,2.6774,2.6773,0,0,0,0,0,2.6726,2.6729,2.6732,2.6734,2.6747,2.6752,2.6754,2.676,2.6762,2.6763,2.6767,2.6771,2.6777,2.6779,2.678,2.6778,2.6784,2.6783,2.6783,2.6775,2.6774,2.6773,0,0,0,0,0,0,2.672,2.6731,2.6734,2.674,2.6745,2.6754,2.6756,2.6759,2.6763,2.6763,2.677,2.6771,2.6772,2.6775,2.6777,2.6776,2.678,2.678,2.6774,2.6773,2.6772,2.6771,2.6783,0,0,0,0,0,2.6719,2.6724,2.6733,2.6738,2.674,2.6747,2.675,2.6754,2.6759,2.6761,2.6765,2.6769,2.6771,2.6772,2.6775,2.6775,2.6775,2.6774,2.6773,2.6772,2.6771,2.6768,2.6766,2.6781,2.6781,2.6781,0,0,2.6718,2.6724,2.6727,2.6736,2.6741,2.6743,2.6749,2.6753,2.6754,2.6761,2.6763,2.6766,2.677,2.677,2.677,2.6772,2.6767,2.6771,2.677,2.677,2.6767,2.6765,2.6764,2.6781,2.6781,2.6781,0,0,2.6716,2.6723,2.6726,2.673,2.6736,2.674,2.6741,2.6748,2.675,2.6752,2.6756,2.6757,2.6761,2.6763,2.6764,2.6759,2.6761,2.6759,2.6754,2.675,2.6749,2.6748,2.6743,2.6742,2.6759,2.6759,2.6759,0,2.6714,2.672,2.6727,2.673,2.6732,2.6738,2.6739,2.6742,2.6748,2.6749,2.6751,2.6754,2.6758,2.6756,2.6755,2.6757,2.6755,2.6759,2.6749,2.6748,2.6747,2.6743,2.6741,2.6758,2.6758,2.6758,2.6758,0,2.6715,2.6719,2.672,2.6726,2.6728,2.673,2.6735,2.6736,2.6738,2.6741,2.6741,2.6744,2.6746,2.6746,2.6749,2.6744,2.6745,2.6748,2.6752,2.6745,2.6741,2.6739,2.6758,2.6758,2.6758,2.6758,0,0,2.6713,2.6719,2.672,2.672,2.6726,2.6728,2.6728,2.673,2.6729,2.6732,2.6731,2.6732,2.6734,2.6736,2.6739,2.6736,2.6727,2.6739,2.6739,2.6734,2.6717,2.6714,2.6712,2.6729,2.6729,2.6728,2.6716,0,2.6711,2.6713,2.6718,2.6718,2.6719,2.6722,2.6722,2.6724,2.6725,2.6725,2.6726,2.6726,2.673,2.673,2.6728,2.6729,2.6723,2.673,2.6725,2.6725,2.6723,2.6711,2.6708,2.6696,2.6715,2.6715,2.6715,0,2.671,2.6712,2.6712,2.6714,2.6714,2.6714,2.6714,2.6715,2.6715,2.6716,2.6715,2.6718,2.6715,2.6719,2.6714,2.6718,2.6716,2.6715,2.6715,2.6714,2.6719,2.6707,2.6693,2.6691,2.6713,2.6713,2.6713,0,2.6705,2.6708,2.6707,2.6708,2.6711,2.671,2.671,2.6711,2.6711,2.671,2.6709,2.6707,2.6706,2.6704,2.6705,2.6708,2.6698,2.6703,2.6696,2.6696,2.6694,2.6694,2.6678,2.6695,2.6695,2.6695,2.6695,0,2.6703,2.6702,2.6705,2.6704,2.6702,2.6705,2.6702,2.6703,2.6703,2.67,2.6703,2.6701,2.6702,2.6699,2.6699,2.6693,2.6693,2.6692,2.6691,2.6691,2.669,2.6689,2.6689,2.6695,2.6695,2.6695,2.6695,0,2.6697,2.67,2.6699,2.67,2.67,2.6698,2.6698,2.6696,2.6697,2.6693,2.6692,2.6693,2.6689,2.6689,2.6685,2.6684,2.6675,2.6677,2.6676,2.6675,2.6668,2.6668,2.6649,2.6645,2.6667,2.6666,2.6666,0,2.6695,2.6694,2.6695,2.6693,2.6694,2.6692,2.6691,2.6692,2.669,2.6688,2.6686,2.6682,2.6679,2.6671,2.6669,2.6665,2.6665,2.6659,2.6665,2.6662,2.6662,2.6662,2.666,2.6657,2.6657,2.6657,2.6657,0,2.669,2.669,2.6689,2.6687,2.6685,2.6683,2.6682,2.668,2.6681,2.6678,2.6674,2.6671,2.6665,2.666,2.6655,2.6653,2.6654,2.6655,2.6653,2.6651,2.6649,2.6648,2.6671,2.6655,2.6656,2.6656,2.6656,2.6656,2.6684,2.6682,2.6681,2.6678,2.6677,2.6675,2.6672,2.6671,2.6667,2.6663,2.6663,2.6657,2.6653,2.6646,2.6644,2.6638,2.664,2.6637,2.6636,2.6635,2.6633,2.6651,2.6637,2.6637,2.6637,2.6637,2.6637,0,2.6677,2.6676,2.6673,2.667,2.6667,2.6668,2.6665,2.6662,2.6657,2.6654,2.665,2.6642,2.6636,2.6633,2.6626,2.6621,2.6621,2.6619,2.6619,2.6618,2.6633,2.6635,2.6619,2.6619,2.6619,2.6619,2.6619,2.6619,2.6673,2.6669,2.6668,2.6661,2.6659,2.6653,2.6651,2.6647,2.6644,2.6636,2.6631,2.6629,2.6624,2.6616,2.661,2.6609,2.6605,2.6602,2.6601,2.6615,2.6617,2.6619,2.662,2.6602,2.6602,2.6586,2.6586,2.6586]}]]